sat.trackr.live / text

‹ back to catalog

KUIPER-00093

NORAD 64838 · 2025-151Y

PAYLOAD ACTIVE UNKNOWN

§ Identity

Operator
Country
US
Launch date
2025-07-16
Launch site
AFETR
Launch vehicle
Mass (kg)
RCS (m²)

External: N2YO · Heavens-Above · Gunter

§ Orbital elements

Epoch: 2026-05-25T04:16:26.759136Z

Period
97.30 min
Inclination
51.9008°
Eccentricity
0.0000598
Mean motion
14.79941535 rev/d
Perigee alt
629.1 km
Apogee alt
629.9 km
Semi-major
7,007.6 km
B*
-8.4770e-4
RAAN
314.8441°
Arg perigee
101.2901°
Mean anomaly
258.8129°
Rev number
4,673

§ Raw data

KUIPER-000931 64838U 25151Y   26145.17808749 -.00006678  00000+0 -84770-3 0  99922 64838  51.9008 314.8441 0000598 101.2901 258.8129 14.79941535 46738

JSON: /api/v1/satellites/64838 · /tle

For live sub-satellite position, see the globe view (requires WebGL).

§ Visibility from observer

Set your observer location to see the next 7 days of passes ≥ 10°. The values pass through the URL so the page stays shareable.

No JS? Fill the form by hand. The geolocation button needs JavaScript.